Location: ??
(35.1714°N, 128.2806°E)
Time: 14:58:37
(UTC+00:00)

Cosmos 1626 Rocket - Pass Details

Date: 29 October 2020
Orbit: 602 x 632 km, 82.5° (Epoch: 30 November)

Event Time Altitude Azimuth Distance (km) Brightness Sun altitude
Rises 20:43:30 0° 184° (S) 2,901 7.1 -13.4°
Reaches altitude 10° 20:45:43 10° 184° (S) 2,001 6.2 -12.9°
Maximum altitude 20:50:10 87° 100° (E) 637 3.6 -12.0°
Drops below altitude 10° 20:54:40 10° 7° (N) 2,019 6.2 -11.1°
Sets 20:56:54 0° 8° (N) 2,930 7.0 -10.7°
